Location: Springville
(37.3745°N, 89.2676°W)
Time: 22:53:02
(UTC+00:00)

Aureole 3 Rocket - Pass Details

Date: 29 October 2020
Orbit: 399 x 1739 km, 82.5° (Epoch: 04 December)

Event Time Altitude Azimuth Distance (km) Brightness Sun altitude
Rises 23:23:04 0° 170° (S) 2,537 6.3 -4.9°
Reaches altitude 10° 23:24:57 10° 164° (SSE) 1,767 5.4 -5.3°
Maximum altitude 23:28:37 47° 90° (E) 839 3.4 -6.0°
Drops below altitude 10° 23:33:36 10° 17° (NNE) 2,399 5.8 -7.0°
Sets 23:36:31 0° 13° (NNE) 3,571 6.7 -7.5°
